NW Arkansas Airport, AR

8:56 AM CDT on July 25, 2017 (GMT -0500)
Northwest Arkansas Regional

Weather History for KXNA - August, 2013

Change the Weather History Date:

Saturday, August 24, 2013

  Actual Average (KVBT) Record (KVBT)
Temperature  
Mean Temperature 78 °F -  
Max Temperature 90 °F 88 °F 96 °F (1948)
Min Temperature 68 °F 63 °F 50 °F (1961)
Cooling Degree Days 14    
Growing Degree Days 28 (Base 50)    
Moisture  
Dew Point 68 °F    
Average Humidity 70    
Maximum Humidity 96    
Minimum Humidity 48    
Precipitation  
Precipitation 0.00 in - - ()
Sea Level Pressure  
Sea Level Pressure 30.10 in    
Wind  
Wind Speed 3 mph (ESE)    
Max Wind Speed 8 mph    
Max Gust Speed -    
Visibility 9 miles    
Events      
Averages and records for this station are not official NWS values.
T = Trace of Precipitation, MM = Missing Value Source: NWS Daily Summary

Daily Weather History Graph

Daily Weather History Graph

Search for Another Location

Airport or City:

Trip Planner

Search our weather history database for the weather conditions in past years. The results will help you decide how hot, cold, wet, or windy it might be!

Date:

Astronomy

Aug. 24, 2013 Rise Set
Actual Time 6:42 AM CDT 7:55 PM CDT
Civil Twilight 6:15 AM CDT 8:22 PM CDT
Nautical Twilight 5:44 AM CDT 8:54 PM CDT
Astronomical Twilight 5:10 AM CDT 9:27 PM CDT
Moon 10:00 PM CDT (8/24) 10:34 AM CDT (8/24)
Length of Visible Light 14h 06m
Length of Day
13h 13m
Waning Gibbous, 84% of the Moon is Illuminated
Aug 24
Waning Gibbous
Aug 28
Last Quarter
Sep 5
New
Sep 12
First Quarter
Sep 19
Full

Hourly Weather History & Observations

Time (CDT) Temp. Heat Index Dew Point Humidity Pressure Visibility Wind Dir Wind Speed Gust Speed Precip Events Conditions
12:53 AM 72.0 °F - 68.0 °F 87% 30.04 in 10.0 mi Calm Calm - N/A   Clear
1:53 AM 71.1 °F - 68.0 °F 90% 30.05 in 10.0 mi Calm Calm - N/A   Clear
2:53 AM 71.1 °F - 68.0 °F 90% 30.06 in 10.0 mi Calm Calm - N/A   Clear
3:53 AM 72.0 °F - 69.1 °F 91% 30.06 in 10.0 mi Calm Calm - N/A   Clear
4:53 AM 70.0 °F - 66.9 °F 90% 30.07 in 7.0 mi Calm Calm - N/A   Clear
5:53 AM 68.0 °F - 66.9 °F 96% 30.09 in 4.0 mi Calm Calm - N/A   Clear
6:53 AM 70.0 °F - 68.0 °F 93% 30.10 in 4.0 mi Calm Calm - N/A   Clear
7:53 AM 72.0 °F - 69.1 °F 91% 30.12 in 5.0 mi Calm Calm - N/A   Clear
8:53 AM 77.0 °F - 70.0 °F 79% 30.13 in 7.0 mi ESE 5.8 mph - N/A   Clear
9:53 AM 81.0 °F 84.4 °F 70.0 °F 69% 30.14 in 9.0 mi SE 8.1 mph - N/A   Clear
10:53 AM 82.9 °F 87.0 °F 70.0 °F 65% 30.14 in 10.0 mi SSE 8.1 mph - N/A   Clear
11:53 AM 84.9 °F 88.8 °F 69.1 °F 59% 30.14 in 10.0 mi South 4.6 mph - N/A   Clear
12:53 PM 86.0 °F 89.4 °F 68.0 °F 55% 30.13 in 10.0 mi SSE 3.5 mph - N/A   Clear
1:50 PM 87.8 °F 90.4 °F 66.2 °F 49% 30.16 in 10.0 mi East 6.9 mph - N/A   Partly Cloudy
1:53 PM 88.0 °F 90.7 °F 66.9 °F 49% 30.12 in 10.0 mi ENE 5.8 mph - N/A   Clear
2:53 PM 89.1 °F 92.1 °F 66.9 °F 48% 30.11 in 8.0 mi SE 4.6 mph - N/A   Clear
3:53 PM 88.0 °F 90.3 °F 66.0 °F 48% 30.09 in 10.0 mi SE 8.1 mph - N/A   Clear
4:53 PM 88.0 °F 91.4 °F 68.0 °F 51% 30.08 in 10.0 mi East 6.9 mph - N/A   Partly Cloudy
5:53 PM 88.0 °F 91.4 °F 68.0 °F 51% 30.08 in 10.0 mi East 8.1 mph - N/A   Clear
6:53 PM 86.0 °F 89.4 °F 68.0 °F 55% 30.07 in 10.0 mi East 5.8 mph - N/A   Clear
7:53 PM 82.9 °F 85.0 °F 66.0 °F 56% 30.08 in 10.0 mi East 3.5 mph - N/A   Clear
8:53 PM 80.1 °F 82.7 °F 68.0 °F 67% 30.10 in 10.0 mi East 4.6 mph - N/A   Clear
9:53 PM 78.1 °F - 69.1 °F 74% 30.12 in 10.0 mi East 5.8 mph - N/A   Clear
10:53 PM 75.9 °F - 68.0 °F 76% 30.12 in 10.0 mi ESE 5.8 mph - N/A   Clear
11:53 PM 75.0 °F - 68.0 °F 79% 30.13 in 10.0 mi ESE 4.6 mph - N/A   Clear